Regional Weather Roundup
Issued by NWS

Home | Current Version | Previous Version | Text Only | Print | Product List | Glossary Off
Versions: 1 2 3 4 5 6 7 8 9 10 11 12 13 14 15 16 17 18 19 20 21 22 23 24 25 26 27 28 29 30 31 32 33 34 35 36 37 38 39 40 41 42 43 44 45 46 47 48 49 50

000
ASUS43 KFSD 211102
RWRSD

WEATHER ROUNDUP FOR SOUTH DAKOTA
NATIONAL WEATHER SERVICE SIOUX FALLS SD
500 AM CST FRI NOV 21 2014

NOTE: "FAIR" INDICATES FEW OR NO CLOUDS BELOW 12,000 FEET WITH NO
SIGNIFICANT WEATHER AND/OR OBSTRUCTIONS TO VISIBILITY.


SDZ001>005-009-010-012>017-211200-
NORTHWEST AND NORTH CENTRAL SOUTH DAKOTA

CITY           SKY/WX    TMP DP  RH WIND       PRES   REMARKS
BUFFALO          N/A     25  19  78 W7        29.72F WCI  17
FAITH            N/A     16  12  84 W7        29.80F WCI   6
MOBRIDGE       MOCLDY    21  17  84 S9        29.83F WCI  11
$$

SDZ012>016-024>037-041>051-057-063-072>074-211200-
SOUTHWEST AND SOUTH CENTRAL SOUTH DAKOTA

CITY           SKY/WX    TMP DP  RH WIND       PRES   REMARKS
RAPID CTY ARPT MOCLDY    28  21  75 NW3       29.82F
PIERRE         PTCLDY    20  17  88 SE12      29.87F WCI   8
CUSTER         MOCLDY    35  20  54 SW5       29.85F
ELLSWORTH AFB  MOCLDY    30  22  74 NW5       29.81F WCI  25
PHILIP         PTCLDY    15   8  73 W5        29.85F WCI   8
PINE RIDGE     MOCLDY    27  19  72 SW7       29.87F WCI  19
WINNER         FAIR      31  21  66 S26G33    29.87F WCI  17
$$

SDZ004>011-016>023-039-040-211200-
NORTHEAST SOUTH DAKOTA

CITY           SKY/WX    TMP DP  RH WIND       PRES   REMARKS
ABERDEEN       PTCLDY    17  12  80 S18       29.94F WCI   1
WATERTOWN      MOCLDY    13   9  84 S16       29.97F WCI  -3
SISSETON         N/A     12   9  87 S15       29.96F WCI  -4
$$

SDZ017-020-022-023-036>040-048>070-211200-
SOUTHEAST SOUTH DAKOTA

CITY           SKY/WX    TMP DP  RH WIND       PRES   REMARKS
SIOUX FALLS    PTCLDY    16  11  80 S14       30.11F WCI   2
HURON          PTCLDY    18  13  80 S16G25    29.98F WCI   3
CHAMBERLAIN    PTCLDY    21  17  84 S9        29.92F WCI  11
MITCHELL       PTCLDY    18  14  84 SE15      30.03F WCI   4
YANKTON        PTCLDY    18  14  86 SE10      30.12F WCI   6
$$

ABBREVIATIONS USED IN REMARKS
   TC - TEMPERATURE IN CELSIUS
  WCI - WIND CHILL INDEX
   HX - HEAT INDEX
  VSB - VISIBILITY



USA.gov is the U.S. government's official web portal to all federal, state and local government web resources and services.